Location: Unspecified
(0.0000°N, 0.0000°E)
Time: 18:17:24
(UTC+00:00)

Envisat - Pass Details

Date: 19 July 2017
Orbit: 764 x 766 km, 98.2° (Epoch: 23 September)

Event Time Altitude Azimuth Distance (km) Brightness Sun altitude
Exits shadow 19:34:21 15° 49° (NE) 1,991 4.9 -20.5°
Drops below altitude 10° 19:35:41 10° 35° (NE) 2,293 5.3 -20.8°
Sets 19:38:39 0° 17° (NNE) 3,216 6.3 -21.5°
